,,,PA_Meas_PMT16A,,PR_Meas_QMR101_102,,RH_Meas_QMH101,,SR_Meas_QMS101,,TA_Meas_QMH101,,GenWind,,GenWind,
date,time,status,PA,status,PR,status,RH,status,SR,status,TA,status,DirAvg,status,SpdAvg,
2009-11-14, 00:00:04,VALID,1010.41,VALID,0,VALID,95.2533,VALID,0.105969,VALID,23.6745,VALID,220,VALID,1.59219,
2009-11-14, 00:01:04,VALID,1010.38,VALID,0,VALID,95.2762,VALID,0.105969,VALID,23.6338,VALID,230,VALID,0.723828,
2009-11-14, 00:02:04,VALID,1010.34,VALID,0,VALID,95.2762,VALID,0.105969,VALID,23.6143,VALID,210,VALID,1.51523,
2009-11-14, 00:03:04,VALID,1010.32,VALID,0,VALID,95.2762,VALID,0,VALID,23.655,VALID,191,VALID,1.6957,
2009-11-14, 00:04:04,VALID,1010.31,VALID,0,VALID,95.2762,VALID,0.105969,VALID,23.6143,VALID,194,VALID,1.13555,
2009-11-14, 00:05:04,VALID,1010.3,VALID,0,VALID,95.2914,VALID,0.105969,VALID,23.6125,VALID,217,VALID,1.14219,
2009-11-14, 00:06:04,VALID,1010.29,VALID,0,VALID,95.3067,VALID,0.105969,VALID,23.6161,VALID,218,VALID,1.31953,
2009-11-14, 00:07:04,VALID,1010.28,VALID,0.5,VALID,95.3067,VALID,0.105969,VALID,23.6143,VALID,198,VALID,0.701953,
2009-11-14, 00:08:04,VALID,1010.28,VALID,0,VALID,95.2762,VALID,0.105969,VALID,23.6338,VALID,207,VALID,0.777344,
2009-11-14, 00:09:04,VALID,1010.25,VALID,0,VALID,95.3143,VALID,0,VALID,23.6161,VALID,213,VALID,1.47031,
2009-11-14, 00:10:04,VALID,1010.26,VALID,0,VALID,95.3143,VALID,0,VALID,23.6143,VALID,233,VALID,0.317578,
2009-11-14, 00:11:04,VALID,1010.24,VALID,0,VALID,95.3143,VALID,0,VALID,23.6143,VALID,204,VALID,1.04219,
2009-11-14, 00:12:04,VALID,1010.24,VALID,0,VALID,95.3295,VALID,0.105969,VALID,23.6143,VALID,199,VALID,0.710156,
2009-11-14, 00:13:04,VALID,1010.23,VALID,0,VALID,95.3448,VALID,0.105969,VALID,23.6356,VALID,192,VALID,1.34063,
2009-11-14, 00:14:04,VALID,1010.22,VALID,0,VALID,95.3372,VALID,0,VALID,23.6356,VALID,184,VALID,1.34219,
2009-11-14, 00:15:04,VALID,1010.21,VALID,0,VALID,95.36,VALID,0.105969,VALID,23.5753,VALID,201,VALID,1.39648,
2009-11-14, 00:16:04,VALID,1010.22,VALID,0,VALID,95.3753,VALID,0.105969,VALID,23.6143,VALID,200,VALID,1,
2009-11-14, 00:17:04,VALID,1010.19,VALID,0,VALID,95.3753,VALID,0.105969,VALID,23.5948,VALID,174,VALID,1.19297,
2009-11-14, 00:18:04,VALID,1010.23,VALID,0,VALID,95.3829,VALID,0.105969,VALID,23.5948,VALID,214,VALID,0.914844,
2009-11-14, 00:19:04,VALID,1010.23,VALID,0,VALID,95.3677,VALID,0.105969,VALID,23.6338,VALID,210,VALID,0.757422,
2009-11-14, 00:20:04,VALID,1010.23,VALID,0,VALID,95.3829,VALID,0,VALID,23.6143,VALID,206,VALID,1.24688,
2009-11-14, 00:21:04,VALID,1010.23,VALID,0,VALID,95.4058,VALID,0.105969,VALID,23.6143,VALID,186,VALID,1.82617,
2009-11-14, 00:22:04,VALID,1010.25,VALID,0,VALID,95.4058,VALID,0.105969,VALID,23.6338,VALID,193,VALID,0.992969,
2009-11-14, 00:23:04,VALID,1010.23,VALID,0,VALID,95.4211,VALID,0.105969,VALID,23.6143,VALID,213,VALID,1.38633,
2009-11-14, 00:24:04,VALID,1010.24,VALID,0,VALID,95.4363,VALID,0.105969,VALID,23.5948,VALID,190,VALID,1.22266,
2009-11-14, 00:25:04,VALID,1010.23,VALID,0,VALID,95.4439,VALID,0.105969,VALID,23.5948,VALID,230,VALID,1.2125,
2009-11-14, 00:26:04,VALID,1010.2,VALID,0,VALID,95.4363,VALID,0.105969,VALID,23.5966,VALID,200,VALID,1.53516,
2009-11-14, 00:27:04,VALID,1010.2,VALID,0,VALID,95.4516,VALID,0,VALID,23.6161,VALID,219,VALID,1.55039,
2009-11-14, 00:28:04,VALID,1010.16,VALID,0,VALID,95.4516,VALID,0.105969,VALID,23.6143,VALID,224,VALID,1.20742,
2009-11-14, 00:29:04,VALID,1010.15,VALID,0,VALID,95.4516,VALID,0,VALID,23.6338,VALID,231,VALID,0.799609,
2009-11-14, 00:30:04,VALID,1010.12,VALID,0,VALID,95.4516,VALID,0.105969,VALID,23.6143,VALID,225,VALID,0.799219,
2009-11-14, 00:31:04,VALID,1010.09,VALID,0,VALID,95.4744,VALID,0.105969,VALID,23.6143,VALID,222,VALID,0.893359,
2009-11-14, 00:32:04,VALID,1010.07,VALID,0,VALID,95.5126,VALID,0.105969,VALID,23.5753,VALID,197,VALID,0.883594,
2009-11-14, 00:33:04,VALID,1010.07,VALID,0,VALID,95.5431,VALID,0.105969,VALID,23.5558,VALID,236,VALID,1.61523,
2009-11-14, 00:34:04,VALID,1010.05,VALID,0,VALID,95.5583,VALID,0.105969,VALID,23.5558,VALID,229,VALID,1.57656,
2009-11-14, 00:35:04,VALID,1010.01,VALID,0,VALID,95.5736,VALID,0,VALID,23.5558,VALID,220,VALID,1.85391,
2009-11-14, 00:36:05,VALID,1010.02,VALID,0,VALID,95.5888,VALID,0.105969,VALID,23.5576,VALID,208,VALID,2.30977,
2009-11-14, 00:37:05,VALID,1009.99,VALID,0,VALID,95.5812,VALID,0.105969,VALID,23.5558,VALID,226,VALID,1.69922,
2009-11-14, 00:38:05,VALID,1010,VALID,0,VALID,95.5964,VALID,0,VALID,23.5558,VALID,233,VALID,1.26211,
2009-11-14, 00:39:05,VALID,1009.99,VALID,0,VALID,95.6041,VALID,0.105969,VALID,23.5753,VALID,213,VALID,1.26484,
2009-11-14, 00:40:05,VALID,1009.93,VALID,0,VALID,95.5964,VALID,0,VALID,23.5771,VALID,221,VALID,1.76523,
2009-11-14, 00:41:05,VALID,1009.93,VALID,0,VALID,95.5964,VALID,0,VALID,23.5771,VALID,219,VALID,1.06289,
2009-11-14, 00:42:05,VALID,1009.9,VALID,0,VALID,95.5888,VALID,0,VALID,23.5576,VALID,163,VALID,0.440234,
2009-11-14, 00:43:05,VALID,1009.86,VALID,0.5,VALID,95.5964,VALID,0,VALID,23.5771,VALID,214,VALID,1.03984,
2009-11-14, 00:44:05,VALID,1009.87,VALID,0,VALID,95.5888,VALID,0,VALID,23.5771,VALID,205,VALID,0.862891,
2009-11-14, 00:45:05,VALID,1009.86,VALID,0.5,VALID,95.5888,VALID,0,VALID,23.5381,VALID,256,VALID,1.75234,
2009-11-14, 00:46:05,VALID,1009.82,VALID,0,VALID,95.6041,VALID,0.105969,VALID,23.5381,VALID,207,VALID,1.71719,
2009-11-14, 00:47:05,VALID,1009.83,VALID,0,VALID,95.6041,VALID,0,VALID,23.5576,VALID,180,VALID,1.3293,
2009-11-14, 00:48:05,VALID,1009.77,VALID,0.5,VALID,95.6117,VALID,0,VALID,23.5186,VALID,210,VALID,2.20234,
2009-11-14, 00:49:05,VALID,1009.77,VALID,0,VALID,95.6193,VALID,0,VALID,23.4992,VALID,227,VALID,0.945703,
2009-11-14, 00:50:05,VALID,1009.73,VALID,0,VALID,95.6117,VALID,0,VALID,23.4584,VALID,219,VALID,2.33125,
2009-11-14, 00:51:05,VALID,1009.71,VALID,0,VALID,95.6117,VALID,0.105969,VALID,23.4389,VALID,197,VALID,1.17266,
2009-11-14, 00:52:05,VALID,1009.67,VALID,0.5,VALID,95.6193,VALID,0,VALID,23.4389,VALID,229,VALID,1.18477,
2009-11-14, 00:53:05,VALID,1009.59,VALID,0,VALID,95.5964,VALID,0.105969,VALID,23.4389,VALID,214,VALID,1.26992,
2009-11-14, 00:54:05,VALID,1009.62,VALID,0,VALID,95.6041,VALID,0,VALID,23.4389,VALID,222,VALID,1.41523,
2009-11-14, 00:55:05,VALID,1009.6,VALID,0,VALID,95.6193,VALID,0,VALID,23.4407,VALID,221,VALID,1.20898,
2009-11-14, 00:56:05,VALID,1009.57,VALID,0,VALID,95.6193,VALID,0,VALID,23.4,VALID,227,VALID,2.27422,
2009-11-14, 00:57:05,VALID,1009.55,VALID,0,VALID,95.6193,VALID,0,VALID,23.4,VALID,209,VALID,1.69219,
2009-11-14, 00:58:05,VALID,1009.54,VALID,0,VALID,95.6269,VALID,0,VALID,23.4212,VALID,212,VALID,1.34883,
2009-11-14, 00:59:05,VALID,1009.52,VALID,0.5,VALID,95.6041,VALID,0,VALID,23.4,VALID,204,VALID,1.13008,
2009-11-14, 01:00:05,VALID,1009.49,VALID,0,VALID,95.6193,VALID,0,VALID,23.4212,VALID,221,VALID,1.25195,
2009-11-14, 01:01:05,VALID,1009.47,VALID,0,VALID,95.6193,VALID,0,VALID,23.3823,VALID,220,VALID,1.92969,
2009-11-14, 01:02:05,VALID,1009.45,VALID,0,VALID,95.6346,VALID,0,VALID,23.361,VALID,215,VALID,1.05078,
2009-11-14, 01:03:05,VALID,1009.43,VALID,0,VALID,95.6346,VALID,0.105969,VALID,23.361,VALID,219,VALID,1.41094,
2009-11-14, 01:04:05,VALID,1009.4,VALID,0,VALID,95.6193,VALID,0,VALID,23.4017,VALID,212,VALID,1.14336,
2009-11-14, 01:05:05,VALID,1009.37,VALID,0,VALID,95.6422,VALID,0,VALID,23.361,VALID,222,VALID,1.6457,
2009-11-14, 01:06:05,VALID,1009.39,VALID,0.5,VALID,95.6193,VALID,0,VALID,23.3415,VALID,215,VALID,1.93242,
2009-11-14, 01:07:05,VALID,1009.36,VALID,0,VALID,95.6422,VALID,0,VALID,23.3823,VALID,202,VALID,1.67578,
2009-11-14, 01:08:05,VALID,1009.35,VALID,0,VALID,95.6346,VALID,0.105969,VALID,23.3805,VALID,192,VALID,1.15234,
2009-11-14, 01:09:05,VALID,1009.34,VALID,0,VALID,95.6498,VALID,0,VALID,23.361,VALID,189,VALID,2.02656,
2009-11-14, 01:10:05,VALID,1009.37,VALID,0,VALID,95.6422,VALID,0,VALID,23.384,VALID,225,VALID,1.62031,
2009-11-14, 01:11:05,VALID,1009.35,VALID,0,VALID,95.6498,VALID,0,VALID,23.3628,VALID,209,VALID,1.02383,
2009-11-14, 01:12:05,VALID,1009.34,VALID,0.5,VALID,95.6422,VALID,0,VALID,23.384,VALID,213,VALID,1.15195,
2009-11-14, 01:13:05,VALID,1009.34,VALID,0,VALID,95.6498,VALID,0,VALID,23.3645,VALID,193,VALID,1.58906,
2009-11-14, 01:14:05,VALID,1009.33,VALID,0,VALID,95.6422,VALID,0,VALID,23.384,VALID,218,VALID,0.897656,
2009-11-14, 01:15:05,VALID,1009.32,VALID,0,VALID,95.6498,VALID,0,VALID,23.3645,VALID,216,VALID,1.44258,
2009-11-14, 01:16:05,VALID,1009.3,VALID,0,VALID,95.6574,VALID,0,VALID,23.3238,VALID,210,VALID,0.371484,
2009-11-14, 01:17:05,VALID,1009.3,VALID,0,VALID,95.6727,VALID,0,VALID,23.3451,VALID,214,VALID,0.735937,
2009-11-14, 01:18:05,VALID,1009.31,VALID,0,VALID,95.6651,VALID,0,VALID,23.3043,VALID,222,VALID,1.16992,
2009-11-14, 01:19:05,VALID,1009.28,VALID,0,VALID,95.688,VALID,0,VALID,23.3256,VALID,183,VALID,1.11094,
2009-11-14, 01:20:05,VALID,1009.28,VALID,0.5,VALID,95.7185,VALID,0,VALID,23.2866,VALID,224,VALID,1.46406,
2009-11-14, 01:21:05,VALID,1009.27,VALID,0,VALID,95.7261,VALID,0,VALID,23.2654,VALID,298,VALID,1.49258,
2009-11-14, 01:22:05,VALID,1009.26,VALID,0,VALID,95.749,VALID,0,VALID,23.2671,VALID,232,VALID,0.660937,
2009-11-14, 01:23:05,VALID,1009.28,VALID,0,VALID,95.7185,VALID,0,VALID,23.2671,VALID,204,VALID,0.801562,
2009-11-14, 01:24:05,VALID,1009.24,VALID,0,VALID,95.7413,VALID,0,VALID,23.2264,VALID,208,VALID,1.06328,
2009-11-14, 01:25:05,VALID,1009.23,VALID,0,VALID,95.7413,VALID,0,VALID,23.2051,VALID,225,VALID,2.42578,
2009-11-14, 01:26:05,VALID,1009.23,VALID,0,VALID,95.7642,VALID,0,VALID,23.1857,VALID,212,VALID,1.50898,
2009-11-14, 01:27:05,VALID,1009.22,VALID,0,VALID,95.7718,VALID,0,VALID,23.2069,VALID,223,VALID,1.3625,
2009-11-14, 01:28:05,VALID,1009.2,VALID,0,VALID,95.7871,VALID,0,VALID,23.2069,VALID,239,VALID,0.354297,
2009-11-14, 01:29:05,VALID,1009.17,VALID,0,VALID,95.7337,VALID,0,VALID,23.2459,VALID,221,VALID,0.476953,
2009-11-14, 01:30:05,VALID,1009.19,VALID,0,VALID,95.749,VALID,0,VALID,23.2459,VALID,224,VALID,1.41016,
2009-11-14, 01:31:05,VALID,1009.14,VALID,0,VALID,95.7947,VALID,0,VALID,23.1874,VALID,219,VALID,1.73047,
2009-11-14, 01:32:05,VALID,1009.14,VALID,0,VALID,95.7947,VALID,0,VALID,23.2069,VALID,238,VALID,1.00352,
2009-11-14, 01:33:05,VALID,1009.12,VALID,0,VALID,95.7718,VALID,0,VALID,23.2069,VALID,206,VALID,0.478906,
2009-11-14, 01:34:05,VALID,1009.11,VALID,0,VALID,95.7947,VALID,0,VALID,23.2069,VALID,217,VALID,1.4418,
2009-11-14, 01:35:05,VALID,1009.09,VALID,0,VALID,95.7795,VALID,0,VALID,23.2069,VALID,221,VALID,0.929297,
2009-11-14, 01:36:05,VALID,1009.06,VALID,0.5,VALID,95.7718,VALID,0,VALID,23.2069,VALID,217,VALID,1.00625,
2009-11-14, 01:37:05,VALID,1009.04,VALID,0,VALID,95.7871,VALID,0,VALID,23.1874,VALID,235,VALID,1.42969,
2009-11-14, 01:38:05,VALID,1009.04,VALID,0,VALID,95.7795,VALID,0,VALID,23.1874,VALID,212,VALID,1.42383,
2009-11-14, 01:39:05,VALID,1009.01,VALID,0,VALID,95.7947,VALID,0,VALID,23.1874,VALID,222,VALID,1.32461,
2009-11-14, 01:40:05,VALID,1009,VALID,0,VALID,95.7871,VALID,0,VALID,23.1874,VALID,200,VALID,0.804297,
2009-11-14, 01:41:05,VALID,1009.01,VALID,0.5,VALID,95.7947,VALID,0.105969,VALID,23.1874,VALID,197,VALID,1.10312,
2009-11-14, 01:42:05,VALID,1008.95,VALID,0,VALID,95.8023,VALID,0,VALID,23.1874,VALID,228,VALID,1.44453,
2009-11-14, 01:43:05,VALID,1008.97,VALID,0,VALID,95.7795,VALID,0,VALID,23.2069,VALID,216,VALID,1.05898,
2009-11-14, 01:44:05,VALID,1008.96,VALID,0,VALID,95.7642,VALID,0,VALID,23.1857,VALID,217,VALID,1.03203,
2009-11-14, 01:45:05,VALID,1008.98,VALID,0,VALID,95.7718,VALID,0,VALID,23.2051,VALID,206,VALID,0.777734,
2009-11-14, 01:46:05,VALID,1008.95,VALID,0,VALID,95.7947,VALID,0,VALID,23.1857,VALID,198,VALID,1.2332,
2009-11-14, 01:47:05,VALID,1008.93,VALID,0,VALID,95.7871,VALID,0.105969,VALID,23.1857,VALID,199,VALID,0.862109,
2009-11-14, 01:48:05,VALID,1008.93,VALID,0,VALID,95.7871,VALID,0,VALID,23.2069,VALID,197,VALID,1.06367,
2009-11-14, 01:49:05,VALID,1008.92,VALID,0,VALID,95.7947,VALID,0.105969,VALID,23.1857,VALID,219,VALID,0.870313,
2009-11-14, 01:50:05,VALID,1008.89,VALID,0,VALID,95.8023,VALID,0,VALID,23.1874,VALID,191,VALID,1.13711,
2009-11-14, 01:51:05,VALID,1008.86,VALID,0,VALID,95.8405,VALID,0,VALID,23.1679,VALID,196,VALID,0.512891,
2009-11-14, 01:52:05,VALID,1008.85,VALID,0,VALID,95.8405,VALID,0,VALID,23.1662,VALID,193,VALID,0.826172,
2009-11-14, 01:53:05,VALID,1008.82,VALID,0,VALID,95.81,VALID,0,VALID,23.1467,VALID,189,VALID,1.08086,
2009-11-14, 01:54:05,VALID,1008.81,VALID,0,VALID,95.8176,VALID,0,VALID,23.1679,VALID,198,VALID,0.952344,
2009-11-14, 01:55:05,VALID,1008.79,VALID,0,VALID,95.8328,VALID,0,VALID,23.1679,VALID,177,VALID,0.782812,
2009-11-14, 01:56:05,VALID,1008.78,VALID,0,VALID,95.81,VALID,0,VALID,23.1679,VALID,196,VALID,0.374609,
2009-11-14, 01:57:05,VALID,1008.79,VALID,0,VALID,95.8252,VALID,0,VALID,23.1662,VALID,230,VALID,0.541016,
2009-11-14, 01:58:05,VALID,1008.77,VALID,0,VALID,95.8176,VALID,0,VALID,23.1679,VALID,203,VALID,1.09141,
2009-11-14, 01:59:05,VALID,1008.75,VALID,0,VALID,95.8328,VALID,0,VALID,23.1874,VALID,181,VALID,0.819141,
2009-11-14, 02:00:05,VALID,1008.73,VALID,0,VALID,95.8252,VALID,0,VALID,23.1679,VALID,175,VALID,1.35469,
2009-11-14, 02:01:05,VALID,1008.72,VALID,0,VALID,95.8481,VALID,0,VALID,23.1874,VALID,174,VALID,1.20586,
2009-11-14, 02:02:05,VALID,1008.71,VALID,0,VALID,95.8481,VALID,0,VALID,23.1874,VALID,197,VALID,0.49375,
2009-11-14, 02:03:05,VALID,1008.71,VALID,0,VALID,95.8557,VALID,0,VALID,23.1874,VALID,185,VALID,1.04297,
2009-11-14, 02:04:05,VALID,1008.71,VALID,0,VALID,95.8557,VALID,0,VALID,23.1874,VALID,186,VALID,0.344531,
2009-11-14, 02:05:05,VALID,1008.74,VALID,0,VALID,95.8481,VALID,0,VALID,23.2069,VALID,186,VALID,0.251953,
2009-11-14, 02:06:05,VALID,1008.74,VALID,0,VALID,95.8405,VALID,0,VALID,23.2069,VALID,180,VALID,0.264453,
2009-11-14, 02:07:05,VALID,1008.74,VALID,0,VALID,95.8481,VALID,0,VALID,23.2069,VALID,180,VALID,0.448828,
2009-11-14, 02:08:05,VALID,1008.72,VALID,0,VALID,95.8405,VALID,0,VALID,23.1857,VALID,180,VALID,0,
2009-11-14, 02:09:05,VALID,1008.71,VALID,0,VALID,95.8633,VALID,0,VALID,23.2264,VALID,180,VALID,0,
2009-11-14, 02:10:05,VALID,1008.71,VALID,0,VALID,95.8405,VALID,0,VALID,23.2264,VALID,192,VALID,0.934766,
2009-11-14, 02:11:05,VALID,1008.67,VALID,0,VALID,95.8786,VALID,0,VALID,23.1874,VALID,173,VALID,1.03633,
2009-11-14, 02:12:05,VALID,1008.67,VALID,0,VALID,95.8939,VALID,0,VALID,23.1662,VALID,205,VALID,1.02461,
2009-11-14, 02:13:05,VALID,1008.68,VALID,0,VALID,95.871,VALID,0.105969,VALID,23.2069,VALID,201,VALID,0.555859,
2009-11-14, 02:14:05,VALID,1008.67,VALID,0,VALID,95.8633,VALID,0,VALID,23.2051,VALID,179,VALID,0.832031,
2009-11-14, 02:15:05,VALID,1008.7,VALID,0,VALID,95.8862,VALID,0,VALID,23.2069,VALID,207,VALID,0.704687,
2009-11-14, 02:16:05,VALID,1008.69,VALID,0,VALID,95.8939,VALID,0,VALID,23.1874,VALID,212,VALID,0.841016,
2009-11-14, 02:17:05,VALID,1008.72,VALID,0,VALID,95.8939,VALID,0,VALID,23.2264,VALID,181,VALID,0.839453,
2009-11-14, 02:18:05,VALID,1008.71,VALID,0,VALID,95.9167,VALID,0.105969,VALID,23.2069,VALID,173,VALID,1.18945,
2009-11-14, 02:19:05,VALID,1008.75,VALID,0,VALID,95.9244,VALID,0,VALID,23.2069,VALID,183,VALID,0.764844,
2009-11-14, 02:20:05,VALID,1008.75,VALID,0,VALID,95.9091,VALID,0,VALID,23.2069,VALID,173,VALID,0.505078,
2009-11-14, 02:21:05,VALID,1008.75,VALID,0,VALID,95.9091,VALID,0,VALID,23.1857,VALID,174,VALID,0.323438,
2009-11-14, 02:22:05,VALID,1008.75,VALID,0,VALID,95.9167,VALID,0,VALID,23.2264,VALID,155,VALID,0.958203,
2009-11-14, 02:23:05,VALID,1008.77,VALID,0,VALID,95.932,VALID,0,VALID,23.2069,VALID,186,VALID,0.794141,
2009-11-14, 02:24:05,VALID,1008.76,VALID,0,VALID,95.9625,VALID,0,VALID,23.2069,VALID,170,VALID,0.628906,
2009-11-14, 02:25:05,VALID,1008.75,VALID,0,VALID,95.932,VALID,0,VALID,23.2069,VALID,147,VALID,0.586719,
2009-11-14, 02:26:05,VALID,1008.73,VALID,0,VALID,95.9244,VALID,0,VALID,23.2051,VALID,149,VALID,0.423047,
2009-11-14, 02:27:05,VALID,1008.72,VALID,0,VALID,95.9396,VALID,0,VALID,23.2264,VALID,158,VALID,0.578906,
2009-11-14, 02:28:05,VALID,1008.73,VALID,0,VALID,95.9091,VALID,0,VALID,23.2459,VALID,158,VALID,0.377734,
2009-11-14, 02:29:05,VALID,1008.71,VALID,0,VALID,95.9625,VALID,0.105969,VALID,23.2264,VALID,186,VALID,0.671875,
2009-11-14, 02:30:05,VALID,1008.7,VALID,0,VALID,95.9472,VALID,0,VALID,23.2264,VALID,186,VALID,0.576953,
2009-11-14, 02:31:05,VALID,1008.71,VALID,0,VALID,95.9549,VALID,0,VALID,23.2069,VALID,217,VALID,0.398438,
2009-11-14, 02:32:05,VALID,1008.68,VALID,0,VALID,95.9701,VALID,0,VALID,23.2459,VALID,217,VALID,0.187109,
2009-11-14, 02:33:05,VALID,1008.65,VALID,0,VALID,95.9549,VALID,0,VALID,23.2246,VALID,217,VALID,0.329688,
2009-11-14, 02:34:05,VALID,1008.62,VALID,0,VALID,95.9549,VALID,0,VALID,23.2264,VALID,212,VALID,0.598828,
2009-11-14, 02:35:05,VALID,1008.62,VALID,0,VALID,95.9777,VALID,0,VALID,23.2264,VALID,188,VALID,0.835547,
2009-11-14, 02:36:05,VALID,1008.59,VALID,0,VALID,95.9854,VALID,0,VALID,23.2264,VALID,199,VALID,0.545703,
2009-11-14, 02:37:05,VALID,1008.57,VALID,0,VALID,96.0006,VALID,0,VALID,23.2264,VALID,199,VALID,0.695313,
2009-11-14, 02:38:05,VALID,1008.55,VALID,0,VALID,95.9854,VALID,0,VALID,23.2459,VALID,199,VALID,0.240625,
2009-11-14, 02:39:05,VALID,1008.54,VALID,0,VALID,96.0006,VALID,0,VALID,23.2459,VALID,203,VALID,0.524609,
2009-11-14, 02:40:05,VALID,1008.52,VALID,0,VALID,96.0082,VALID,0.105969,VALID,23.2459,VALID,205,VALID,0.971094,
2009-11-14, 02:41:05,VALID,1008.51,VALID,0.5,VALID,96.0082,VALID,0,VALID,23.2459,VALID,187,VALID,0.799609,
2009-11-14, 02:42:05,VALID,1008.51,VALID,0,VALID,95.993,VALID,0.105969,VALID,23.2441,VALID,211,VALID,0.495703,
2009-11-14, 02:43:05,VALID,1008.49,VALID,0,VALID,96.0006,VALID,0,VALID,23.2848,VALID,219,VALID,0.927344,
2009-11-14, 02:44:05,VALID,1008.47,VALID,0,VALID,96.0311,VALID,0.105969,VALID,23.2441,VALID,198,VALID,0.567578,
2009-11-14, 02:45:05,VALID,1008.46,VALID,0,VALID,96.0235,VALID,0.105969,VALID,23.2636,VALID,181,VALID,0.685547,
2009-11-14, 02:46:05,VALID,1008.41,VALID,0,VALID,96.0159,VALID,0.105969,VALID,23.3043,VALID,198,VALID,0.492578,
2009-11-14, 02:47:05,VALID,1008.41,VALID,0,VALID,96.0387,VALID,0,VALID,23.2848,VALID,186,VALID,0.894141,
2009-11-14, 02:48:05,VALID,1008.39,VALID,0,VALID,96.0769,VALID,0.105969,VALID,23.2459,VALID,190,VALID,1.26211,
2009-11-14, 02:49:05,VALID,1008.39,VALID,0,VALID,96.0769,VALID,0,VALID,23.2654,VALID,216,VALID,0.850391,
2009-11-14, 02:50:05,VALID,1008.33,VALID,0,VALID,96.0692,VALID,0,VALID,23.2459,VALID,219,VALID,0.861719,
2009-11-14, 02:51:05,VALID,1008.3,VALID,0,VALID,96.0921,VALID,0,VALID,23.2654,VALID,238,VALID,0.615625,
2009-11-14, 02:52:05,VALID,1008.31,VALID,0,VALID,96.0997,VALID,0,VALID,23.2246,VALID,223,VALID,0.954687,
2009-11-14, 02:53:05,VALID,1008.26,VALID,0,VALID,96.0769,VALID,0.105969,VALID,23.2441,VALID,216,VALID,0.526172,
2009-11-14, 02:54:05,VALID,1008.21,VALID,0,VALID,96.0769,VALID,0.105969,VALID,23.2441,VALID,216,VALID,0.356641,
2009-11-14, 02:55:05,VALID,1008.16,VALID,0,VALID,96.0692,VALID,0.105969,VALID,23.2654,VALID,283,VALID,0.432422,
2009-11-14, 02:56:05,VALID,1008.15,VALID,0,VALID,96.0769,VALID,0,VALID,23.2654,VALID,283,VALID,0.223047,
2009-11-14, 02:57:05,VALID,1008.13,VALID,0,VALID,96.0845,VALID,0,VALID,23.2459,VALID,240,VALID,0.544141,
2009-11-14, 02:58:05,VALID,1008.09,VALID,0,VALID,96.0997,VALID,0,VALID,23.2654,VALID,217,VALID,0.275,
2009-11-14, 02:59:05,VALID,1008.07,VALID,0,VALID,96.0997,VALID,0.105969,VALID,23.2246,VALID,217,VALID,0.316016,
2009-11-14, 03:00:05,VALID,1008.1,VALID,0,VALID,96.0997,VALID,0,VALID,23.2441,VALID,220,VALID,0.244531,
2009-11-14, 03:01:05,VALID,1008.07,VALID,0,VALID,96.0997,VALID,0,VALID,23.2441,VALID,221,VALID,0.2625,
2009-11-14, 03:02:05,VALID,1008.06,VALID,0,VALID,96.0921,VALID,0,VALID,23.2654,VALID,221,VALID,0.182031,
2009-11-14, 03:03:05,VALID,1008.06,VALID,0,VALID,96.0997,VALID,0.105969,VALID,23.2654,VALID,257,VALID,0.390625,
2009-11-14, 03:04:05,VALID,1008.03,VALID,0,VALID,96.1302,VALID,0,VALID,23.2459,VALID,270,VALID,0.283984,
2009-11-14, 03:05:05,VALID,1008.05,VALID,0,VALID,96.1074,VALID,0,VALID,23.2459,VALID,300,VALID,0.465625,
2009-11-14, 03:06:05,VALID,1008.02,VALID,0,VALID,96.1226,VALID,0,VALID,23.2459,VALID,326,VALID,0.0539063,
2009-11-14, 03:07:05,VALID,1008.01,VALID,0,VALID,96.115,VALID,0,VALID,23.2459,VALID,326,VALID,0.161328,
2009-11-14, 03:08:05,VALID,1007.99,VALID,0,VALID,96.0997,VALID,0,VALID,23.2459,VALID,326,VALID,0.116797,
2009-11-14, 03:09:05,VALID,1007.98,VALID,0,VALID,96.1531,VALID,0.105969,VALID,23.2459,VALID,326,VALID,0,
2009-11-14, 03:10:05,VALID,1007.95,VALID,0,VALID,96.1302,VALID,0,VALID,23.2264,VALID,326,VALID,0.348828,
2009-11-14, 03:11:05,VALID,1007.95,VALID,0,VALID,96.1379,VALID,0.105969,VALID,23.2069,VALID,333,VALID,0.367969,
2009-11-14, 03:12:05,VALID,1007.98,VALID,0,VALID,96.1455,VALID,0,VALID,23.2069,VALID,335,VALID,0.188281,
2009-11-14, 03:13:05,VALID,1007.97,VALID,0,VALID,96.1379,VALID,0,VALID,23.2069,VALID,335,VALID,0.320703,
2009-11-14, 03:14:05,VALID,1008,VALID,0,VALID,96.1684,VALID,0,VALID,23.1874,VALID,343,VALID,0.435937,
2009-11-14, 03:15:05,VALID,1008,VALID,0,VALID,96.1531,VALID,0,VALID,23.1874,VALID,1,VALID,0.484375,
2009-11-14, 03:16:05,VALID,1008,VALID,0,VALID,96.1531,VALID,0.105969,VALID,23.1679,VALID,1,VALID,0.320313,
2009-11-14, 03:17:05,VALID,1008.03,VALID,0,VALID,96.1608,VALID,0,VALID,23.1874,VALID,1,VALID,0.387109,
2009-11-14, 03:18:05,VALID,1008.05,VALID,0,VALID,96.1455,VALID,0,VALID,23.1679,VALID,1,VALID,0.280859,
2009-11-14, 03:19:05,VALID,1008.06,VALID,0,VALID,96.1608,VALID,0,VALID,23.1485,VALID,1,VALID,0.165625,
2009-11-14, 03:20:05,VALID,1008.07,VALID,0,VALID,96.1608,VALID,0,VALID,23.1485,VALID,1,VALID,0.368359,
2009-11-14, 03:21:05,VALID,1008.1,VALID,0,VALID,96.1531,VALID,0,VALID,23.1679,VALID,1,VALID,0.183203,
2009-11-14, 03:22:05,VALID,1008.09,VALID,0,VALID,96.1455,VALID,0.105969,VALID,23.2069,VALID,1,VALID,0.298828,
2009-11-14, 03:23:04,VALID,1008.11,VALID,0,VALID,96.1379,VALID,0.105969,VALID,23.2069,VALID,1,VALID,0.136328,
2009-11-14, 03:24:04,VALID,1008.12,VALID,0,VALID,96.1379,VALID,0,VALID,23.1874,VALID,1,VALID,0.315625,
2009-11-14, 03:25:04,VALID,1008.13,VALID,0,VALID,96.1379,VALID,0,VALID,23.1662,VALID,1,VALID,0.0875,
2009-11-14, 03:26:04,VALID,1008.18,VALID,0,VALID,96.1608,VALID,0,VALID,23.1874,VALID,1,VALID,0,
2009-11-14, 03:27:04,VALID,1008.16,VALID,0,VALID,96.1684,VALID,0.105969,VALID,23.1874,VALID,1,VALID,0.152344,
2009-11-14, 03:28:04,VALID,1008.16,VALID,0,VALID,96.1608,VALID,0.105969,VALID,23.1874,VALID,1,VALID,0.174219,
2009-11-14, 03:29:04,VALID,1008.17,VALID,0,VALID,96.1608,VALID,0,VALID,23.1874,VALID,1,VALID,0.139844,
2009-11-14, 03:30:04,VALID,1008.19,VALID,0,VALID,96.176,VALID,0.105969,VALID,23.1679,VALID,353,VALID,0.440625,
2009-11-14, 03:31:04,VALID,1008.18,VALID,0,VALID,96.176,VALID,0,VALID,23.1679,VALID,350,VALID,0.260938,
2009-11-14, 03:32:04,VALID,1008.2,VALID,0,VALID,96.1836,VALID,0,VALID,23.1679,VALID,350,VALID,0.322656,
2009-11-14, 03:33:04,VALID,1008.22,VALID,0,VALID,96.1684,VALID,0,VALID,23.1679,VALID,350,VALID,0.308203,
2009-11-14, 03:34:04,VALID,1008.22,VALID,0,VALID,96.1608,VALID,0,VALID,23.1874,VALID,350,VALID,0.0464844,
2009-11-14, 03:35:04,VALID,1008.22,VALID,0,VALID,96.1608,VALID,0,VALID,23.1857,VALID,350,VALID,0,
2009-11-14, 03:36:04,VALID,1008.22,VALID,0,VALID,96.176,VALID,0.105969,VALID,23.2069,VALID,350,VALID,0,
2009-11-14, 03:37:04,VALID,1008.25,VALID,0,VALID,96.1531,VALID,0,VALID,23.2069,VALID,350,VALID,0,
2009-11-14, 03:38:04,VALID,1008.25,VALID,0,VALID,96.176,VALID,0.105969,VALID,23.2051,VALID,350,VALID,0,
2009-11-14, 03:39:04,VALID,1008.24,VALID,0,VALID,96.1684,VALID,0.105969,VALID,23.2051,VALID,350,VALID,0.0324219,
2009-11-14, 03:40:04,VALID,1008.23,VALID,0,VALID,96.1836,VALID,0,VALID,23.2264,VALID,350,VALID,0.264062,
2009-11-14, 03:41:04,VALID,1008.23,VALID,0,VALID,96.1836,VALID,0.105969,VALID,23.2051,VALID,350,VALID,0,